FLOCK 4P-8

Last updated on Sat Dec 28 2019 00:02:03 GMT+0000 (Coordinated Universal Time)

1 44815U 19081M 19361.16510846 .00000612 00000-0 31939-4 0 9990 2 44815 97.5205 58.1088 0012957 130.7553 229.4808 15.19663173 4559
UTC large
Height (km)
Speed (km/s)
/
Latitude / Longitude
Inclination (degrees)
Orbital Period (minutes)
Azimuth
Elevation
Range (km)
Doppler Factor

Next 0 passes for location: London (51.5072 / 0.1276)

Sorry there are no passes over London.